Regional Weather Roundup
Issued by NWS

Home | Current Version | Previous Version | Text Only | Print | Product List | Glossary Off
Versions: 1 2 3 4 5 6 7 8 9 10 11 12 13 14 15 16 17 18 19 20 21 22 23 24 25 26 27 28 29 30 31 32 33 34 35 36 37 38 39 40 41 42 43 44 45 46 47 48 49 50

000
ASUS43 KMKX 180311
RWRWI

WISCONSIN REGIONAL WEATHER ROUNDUP
NATIONAL WEATHER SERVICE MILWAUKEE/SULLIVAN WI
1000 PM CDT WED SEP 17 2014

NOTE: "FAIR" INDICATES FEW OR NO CLOUDS BELOW 12,000 FEET WITH NO
SIGNIFICANT WEATHER AND/OR OBSTRUCTIONS TO VISIBILITY.

WIZ001-002-006>008-014>016-023>028-180400-
NORTHWEST WISCONSIN

CITY           SKY/WX    TMP DP  RH WIND       PRES   REMARKS
SUPERIOR ARPT  CLOUDY    47  39  73 E13G21    30.12R
ASHLAND        PTCLDY    43  38  82 NE9       30.14R
HAYWARD        CLOUDY    46  43  89 NE8       30.10R
SIREN          CLOUDY    48  44  84 NE10      30.08R
RICE LAKE      CLEAR     51  46  85 N10       30.06R
LADYSMITH      CLEAR     49  46  91 N6        30.08R
EAU CLAIRE     CLEAR     53  51  93 N8        30.01R
MENOMONIE      CLEAR     56  53  92 CALM      30.01R
NEW RICHMOND   CLEAR     55  54  94 NE9       30.02R
OSCEOLA        CLEAR     56  55  97 CALM      30.05R
$$

WIZ003>005-009-010-017-018-180400-
NORTH CENTRAL WISCONSIN

CITY           SKY/WX    TMP DP  RH WIND       PRES   REMARKS
WOODRUFF       MOCLDY    49  45  85 NE6       30.08R
RHINELANDER    CLOUDY    49  45  86 NE7       30.08R
EAGLE RIVER    CLOUDY    45  39  82 E7        30.09R
LAND O LAKES   CLOUDY    43  41  93 NE7       30.10S
PHILLIPS       PTCLDY    49  46  88 N7        30.07R
TOMAHAWK       MOCLDY    51  46  84 N6        30.07R
MEDFORD        CLEAR     52  48  87 NE6       30.04R
MERRILL        CLOUDY    54  50  87 E5        30.05R
$$

WIZ029-030-035-036-043>047-180400-
CENTRAL WISCONSIN

CITY           SKY/WX    TMP DP  RH WIND       PRES   REMARKS
WAUSAU         PTCLDY    57  51  80 NE6       30.03R
MOSINEE        MOCLDY    57  54  88 N8        30.03R
MARSHFIELD     CLEAR     52  50  93 CALM      30.01R
STEVENS POINT  CLEAR     50  48  93 CALM      30.02R
WAUPACA        CLEAR     54  52  93 CALM      30.01S
WAUTOMA        CLEAR     49  48  96 CALM      30.02R
WISC RAPIDS    CLEAR     52  50  93 CALM      30.03R
CAMP DOUGLAS   CLEAR     48  48 100 CALM      30.02R
$$

WIZ011>013-019>022-031-037>040-048>050-180400-
NORTHEAST WISCONSIN

CITY           SKY/WX    TMP DP  RH WIND       PRES   REMARKS
ANTIGO         CLEAR     51  49  93 E6        30.06R
STURGEON BAY   MOCLDY    50  43  76 NE14      30.07R
GREEN BAY      MOCLDY    53  48  83 NE21G30   30.05R
MANITOWOC      MOCLDY    56  52  86 N8        30.02R
APPLETON       MOCLDY    57  50  77 NE12G20   30.03R
CLINTONVILLE   CLOUDY    54  46  76 NE14      30.05R
OSHKOSH        CLEAR     57  49  74 CALM      30.00R
$$

WIZ032>034-041-042-053>061-180400-
SOUTHWEST WISCONSIN

CITY           SKY/WX    TMP DP  RH WIND       PRES   REMARKS
LA CROSSE      CLEAR     57  54  89 E5        30.01R
SPARTA         CLEAR     48  47  96 CALM      30.03R
VIROQUA        FAIR      52  51  96 CALM      30.03R
BOSCOBEL       CLEAR     52  50  93 CALM      30.03R
PRAIRIE DU CHI FAIR      53  50  90 E3        30.02R
PLATTEVILLE    FAIR      57  50  76 CALM      30.04R
$$

WIZ056-057-062-063-064-067-068-180400-
SOUTH CENTRAL WISCONSIN

CITY           SKY/WX    TMP DP  RH WIND       PRES   REMARKS
BARABOO/DELLS  CLEAR     53  50  90 CALM      30.02R
LONE ROCK      CLEAR     54  47  77 CALM      30.02R
WATERTOWN      CLEAR     50  49  99 CALM      30.01S
MADISON        CLEAR     52  50  93 CALM      30.02R
MIDDLETON      FAIR      52  52  99 CALM      30.02S
MONROE         CLEAR     61  50  67 NE3       30.03R
JANESVILLE     MOCLDY    55  54  94 CALM      30.01R
$$

WIZ051-052-058>065-066-070>072-180400-
SOUTHEAST WISCONSIN

CITY           SKY/WX    TMP DP  RH WIND       PRES   REMARKS
MILWAUKEE      CLEAR     60  46  59 CALM      30.02R
WAUKESHA       CLEAR     50  46  87 CALM      30.03R
MILWAUKEE/TIMM CLEAR     54  46  76 CALM      30.03R
RACINE         CLEAR     55  49  80 CALM      30.03S
BURLINGTON     CLEAR     46  46  99 CALM      30.02R
KENOSHA        CLEAR     50  48  93 S3        30.02S
FOND DU LAC    CLEAR     52  49  89 CALM      30.01R
SHEBOYGAN      CLEAR     51  48  89 SW3       30.01R
WEST BEND      CLEAR     50  46  87 CALM      30.02R
JUNEAU         CLEAR     52  50  91 CALM      30.03R
$$

LSZ147-162-180400-
LAKE SUPERIOR

STATION/POSITION TIME  TEMP    WIND        PRES    WAVE
                       AIR SEA DIR/SP/G            HT/PER
                 (UTC) (F)     (DEG/KT/KT) (MB)    (FT/S)
W MID LAKE BUOY  0250   45 47   70/ 14/ 16 1021.2R   3/ 6
DEVILS ISLAND    0300   46      80/ 19/ 22 1021.5R
PORT WING        0240   44      80/  2/  6 1020.7R
SAXON HARBOR     0200   48      60/ 15/ 18 1020.0R
$$

LMZ867-665-643>646-180400-
LAKE MICHIGAN

STATION/POSITION TIME  TEMP    WIND        PRES    WAVE
                       AIR SEA DIR/SP/G            HT/PER
                 (UTC) (F)     (DEG/KT/KT) (MB)    (FT/S)
N MID LAKE BUOY  0250   50 58   10/ 21/ 25 1017.9R   4/ 4
NORTHPORT PIER   0200   51      10/ 17/ 22 1018.3R
KEWAUNEE LAKESHO 0200   55      10/ 16/ 21 1015.1R
SHEBOYGAN LAKESH 0300   57 51  230/  6/  7 1016.3R
PORT WASHINGTON  0240   56     270/  2/  3 1016.9R
ATWATER BUOY     0300   59     200/  8/  8 1017.4R
MILWAUKEE LAKESH 0200   59     230/  2/  3   N/A
S MID LAKE BUOY  0250   62 64  170/  4/  6 1016.7R   0
KENOSHA   LAKESH 0300   59     200/  5/  6 1016.6R
$$

TC  - TEMPERATURE IN CELSIUS
VSB - VISIBILITY IN STATUTE MILES
WCI - WIND CHILL INDEX
HX  - HEAT INDEX




USA.gov is the U.S. government's official web portal to all federal, state and local government web resources and services.